Tracking 27420 objects as of 11-Jun-2023
HD Live streaming from Space Station
objects crossing your sky now

STARLINK-6091

Track STARLINK-6091 now!
10-day predictions
STARLINK-6091 is classified as:


NORAD ID: 56119
Int'l Code: 2023-046AC
Perigee: 549.9 km
Apogee: 551.6 km
Inclination: 43.0 °
Period: 95.5 minutes
Semi major axis: 6921 km
RCS: Unknown
Launch date: March 29, 2023
Source: United States (US)
Launch site: AIR FORCE EASTERN TEST RANGE (AFETR)
Your satellite tracking list
Your tracking list is empty




NASA's NSSDC Master Catalog

Two Line Element Set (TLE):
1 56119U 23046AC  23161.58334491 -.00894987  00000-0 -62470-1 0  9994
2 56119  42.9975 197.2304 0001279 277.4906 348.1222 15.07571947  1302
Source of the keplerian elements: AFSPC